"Pseudo-MPEC" for P22oDk3

Created 2026 Aug 6 2:35:12 UT using Find_Orb

Click here for an explanation of pseudo-MPECs

 
 Astrometry: 
     P22oDk3*0C2026 07 25.51588323 30 30.493+19 33 01.23   ~7PE5 22.61wXNEOCPF52
     P22oDk3 0C2026 07 25.52752023 30 31.014+19 33 20.04   ~7PE5 22.35wXNEOCPF52
     P22oDk3 0C2026 07 25.53939023 30 31.561+19 33 38.92   ~7PE5 22.03wXNEOCPF52
     P22oDk3 0C2026 07 25.55207623 30 32.136+19 33 59.50   ~7PE5 22.34wXNEOCPF52
     P22oDk3 0C2026 07 25.59999823 30 34.276+19 35 16.18   ~7PLo 22.77GVNEOCPF52
     P22oDk3 0C2026 07 25.60063223 30 34.309+19 35 17.21   ~7PLo 22.10GVNEOCPF52
     P22oDk3 0C2026 07 26.50171523 31 18.741+19 59 16.04   ~7QGZ 21.72GVNEOCPF52
     P22oDk3 0C2026 07 26.51136023 31 19.155+19 59 31.50   ~7QGZ 21.43GVNEOCPF52

Station data:
(F52) Pan-STARRS 2, Haleakala  (N20.707382 W156.255910)  US/Hawaii.
   Observers J. Herman, T. Lowe, P. Minguez, A. Schultz, I. Smith. Measurers
   K. Chambers, T. de Boer, J. Fairlamb, H. Gao, M. Huber, C.-C. Lin, E.
   Magnier, Y. Ramanjooloo, R. Wainscoat, R. Weryk. 1.8-m Ritchey-Chrétien +
   CCD.

Orbital elements:  P22oDk3
   Perihelion 2026 Dec 1.413822 +/- 50.6 TT =  9:55:54.2 (JD 2461375.913822)
Epoch 2026 Jul 26.0 TT = JDT 2461247.5   Earth MOID: 0.1509      AutoNEOCP
M 304.035152569 +/- 21              (J2000 ecliptic)
n   0.435816382 +/- 0.121           Peri.  155.225700 +/- 38
a   1.722927547 +/- 0.319           Node   268.685886 +/- 5.1
e   0.34926978 +/- 0.112            Incl.   12.310859 +/- 1.4
P   2.262/826.020d         H 20.30  G  0.15   U 11.3  SR
q 1.121161020 +/- 0.13    Q 2.324694074 +/- 1.04
From 8 observations 2026 July 25-26 (23.9 hr); mean residual 0".22
Residuals in arcseconds: 
260725 F52  .08-  .42-    260725 F52  .12+  .05+    260726 F52  .07+  .01+    
260725 F52  .13-  .21-    260725 F52  .01-  .45+    260726 F52  .08-  .08-    
260725 F52  .05+  .29-    260725 F52  .06+  .48+    

Ephemerides (geocentric):
Date (UTC) HH   RA             Dec           delta  r     elong  mag " sig PA
---- --------  ------------   ------------  ------ ------ -----  --- --------
2026 08 06 03  23 38 41.475   +24 53 13.57  .69731 1.5162 123.7 21.8  800 154
2026 08 06 04  23 38 42.909   +24 54 25.04  .69693 1.5160 123.7 21.8  806 154
2026 08 06 05  23 38 44.341   +24 55 36.53  .69656 1.5158 123.7 21.8  812 154
2026 08 06 06  23 38 45.769   +24 56 48.03  .69618 1.5156 123.7 21.8  819 154
2026 08 06 07  23 38 47.196   +24 57 59.55  .69581 1.5154 123.7 21.8  825 154
2026 08 06 08  23 38 48.619   +24 59 11.09  .69543 1.5152 123.7 21.8  831 154
2026 08 06 09  23 38 50.040   +25 00 22.64  .69506 1.5150 123.8 21.8  837 154
2026 08 06 10  23 38 51.458   +25 01 34.21  .69468 1.5148 123.8 21.8  843 154
2026 08 06 11  23 38 52.874   +25 02 45.79  .69431 1.5146 123.8 21.8  850 154
2026 08 06 12  23 38 54.287   +25 03 57.39  .69393 1.5144 123.8 21.8  856 154
2026 08 06 13  23 38 55.697   +25 05 09.01  .69356 1.5142 123.8 21.8  862 154
2026 08 06 14  23 38 57.105   +25 06 20.64  .69318 1.5140 123.8 21.8  869 154
2026 08 06 15  23 38 58.510   +25 07 32.29  .69281 1.5138 123.9 21.8  875 154
2026 08 06 16  23 38 59.913   +25 08 43.96  .69244 1.5136 123.9 21.8  881 154
2026 08 06 17  23 39 01.313   +25 09 55.64  .69206 1.5134 123.9 21.8  888 154
2026 08 06 18  23 39 02.710   +25 11 07.34  .69169 1.5132 123.9 21.8  894 154
2026 08 06 19  23 39 04.104   +25 12 19.06  .69132 1.5130 123.9 21.8  901 154
2026 08 06 20  23 39 05.496   +25 13 30.79  .69094 1.5128 123.9 21.8  907 154
2026 08 06 21  23 39 06.885   +25 14 42.54  .69057 1.5126 124.0 21.8  914 154
2026 08 06 22  23 39 08.272   +25 15 54.30  .69020 1.5124 124.0 21.8  920 154
2026 08 06 23  23 39 09.656   +25 17 06.08  .68983 1.5122 124.0 21.8  927 154
2026 08 07 00  23 39 11.037   +25 18 17.88  .68945 1.5120 124.0 21.8  933 154
2026 08 07 01  23 39 12.416   +25 19 29.69  .68908 1.5118 124.0 21.8  940 154
2026 08 07 02  23 39 13.792   +25 20 41.52  .68871 1.5116 124.0 21.8  947 154
2026 08 07 03  23 39 15.165   +25 21 53.36  .68834 1.5114 124.1 21.8  953 154
2026 08 07 04  23 39 16.536   +25 23 05.22  .68797 1.5112 124.1 21.8  960 154
2026 08 07 05  23 39 17.904   +25 24 17.09  .68760 1.5110 124.1 21.8  967 154
2026 08 07 06  23 39 19.269   +25 25 28.99  .68722 1.5107 124.1 21.8  973 154
2026 08 07 07  23 39 20.631   +25 26 40.89  .68685 1.5105 124.1 21.8  980 154
2026 08 07 08  23 39 21.991   +25 27 52.82  .68648 1.5103 124.1 21.8  987 154
2026 08 07 09  23 39 23.348   +25 29 04.76  .68611 1.5101 124.2 21.8  994 154
2026 08 07 10  23 39 24.703   +25 30 16.71  .68574 1.5099 124.2 21.8 1001 154
2026 08 07 11  23 39 26.055   +25 31 28.68  .68537 1.5097 124.2 21.8 1007 154
2026 08 07 12  23 39 27.404   +25 32 40.67  .68500 1.5095 124.2 21.8 1014 154
2026 08 07 13  23 39 28.750   +25 33 52.67  .68463 1.5093 124.2 21.8 1021 154
2026 08 07 14  23 39 30.094   +25 35 04.69  .68426 1.5091 124.2 21.8 1028 154
2026 08 07 15  23 39 31.435   +25 36 16.72  .68389 1.5089 124.3 21.8 1035 154
2026 08 07 16  23 39 32.773   +25 37 28.77  .68352 1.5087 124.3 21.8 1042 154
2026 08 07 17  23 39 34.109   +25 38 40.84  .68315 1.5085 124.3 21.8 1049 154
2026 08 07 18  23 39 35.441   +25 39 52.92  .68279 1.5083 124.3 21.8 1056 154
2026 08 07 19  23 39 36.772   +25 41 05.01  .68242 1.5081 124.3 21.8 1063 154
2026 08 07 20  23 39 38.099   +25 42 17.13  .68205 1.5079 124.3 21.8 1070 154
2026 08 07 21  23 39 39.424   +25 43 29.25  .68168 1.5077 124.4 21.8 1077 154
2026 08 07 22  23 39 40.746   +25 44 41.40  .68131 1.5075 124.4 21.8 1084 154
2026 08 07 23  23 39 42.065   +25 45 53.55  .68094 1.5073 124.4 21.8 1091 154
2026 08 08 00  23 39 43.381   +25 47 05.73  .68058 1.5071 124.4 21.8 1098 154
2026 08 08 01  23 39 44.695   +25 48 17.92  .68021 1.5069 124.4 21.8 1106 154
2026 08 08 02  23 39 46.006   +25 49 30.12  .67984 1.5067 124.4 21.8 1113 154